GW4081 Weather Reports


Display with metric or nautical units.
time (UTC)temp
F
wind
direction
speed
MPH
gust
MPH
rain 1hr
in
rain 24hr
in
rain mn
in
humidity
%
barometer
mb
20260506153604 56 72 6.0 17.0 0.00 0.00 0.00 67 1017.9
20260506153104 55 45 6.0 17.0 0.00 0.00 0.00 67 1017.9
20260506152604 55 53 7.0 17.0 0.00 0.00 0.00 68 1017.9
20260506152104 55 59 9.0 13.0 0.00 0.00 0.00 69 1017.8
20260506151604 54 47 5.0 18.0 0.00 0.00 0.00 70 1018.0
20260506151104 54 46 7.0 18.0 0.00 0.00 0.00 71 1018.0
20260506150604 53 58 7.0 14.0 0.00 0.00 0.00 72 1018.0
20260506150104 53 47 4.0 13.0 0.00 0.00 0.00 74 1017.9
20260506145604 53 47 7.0 13.0 0.00 0.00 0.00 73 1017.9
20260506144604 51 49 6.0 15.0 0.00 0.00 0.00 76 1017.8
20260506144104 51 26 8.0 15.0 0.00 0.00 0.00 76 1017.7
20260506143104 51 51 5.0 17.0 0.00 0.00 0.00 78 1017.3
20260506142604 51 61 7.0 18.0 0.00 0.00 0.00 78 1017.3
20260506142103 50 63 8.0 18.0 0.00 0.00 0.00 78 1017.4
20260506141104 50 22 5.0 13.0 0.00 0.00 0.00 79 1017.4
20260506135604 50 23 6.0 13.0 0.00 0.00 0.00 81 1017.5
20260506135104 49 55 7.0 13.0 0.00 0.00 0.00 81 1017.5
20260506134104 49 65 4.0 13.0 0.00 0.00 0.00 82 1017.7
20260506133604 49 18 5.0 13.0 0.00 0.00 0.00 82 1017.7
20260506133104 49 49 5.0 14.0 0.00 0.00 0.00 82 1017.6
20260506132103 49 61 5.0 14.0 0.00 0.00 0.00 83 1017.8
20260506131604 49 28 3.0 14.0 0.00 0.00 0.00 83 1017.8
20260506131104 49 28 6.0 14.0 0.00 0.00 0.00 83 1017.6
20260506130604 49 27 6.0 14.0 0.00 0.00 0.00 83 1017.7
20260506130104 49 84 5.0 12.0 0.00 0.00 0.00 83 1017.5
20260506125104 49 31 5.0 13.0 0.00 0.00 0.00 83 1017.4
20260506124604 49 36 5.0 13.0 0.00 0.00 0.00 83 1017.4
20260506123604 49 73 4.0 16.0 0.00 0.00 0.00 84 1017.1
20260506122604 48 30 5.0 12.0 0.00 0.00 0.00 84 1016.8
20260506121603 48 36 5.0 14.0 0.00 0.00 0.00 85 1016.6
20260506121104 48 43 6.0 14.0 0.00 0.00 0.00 85 1016.5
20260506120604 48 67 3.0 9.0 0.00 0.00 0.00 85 1016.2
20260506120104 48 41 3.0 8.0 0.00 0.00 0.00 85 1016.1
20260506115604 48 68 3.0 9.0 0.00 0.00 0.00 85 1016.1
20260506115103 48 1 5.0 10.0 0.00 0.00 0.00 84 1016.1
20260506114604 48 28 3.0 10.0 0.00 0.00 0.00 84 1016.1
20260506114104 48 34 3.0 8.0 0.00 0.00 0.00 84 1016.2
20260506113603 48 24 3.0 10.0 0.00 0.00 0.00 84 1016.2
20260506113104 48 5 2.0 10.0 0.00 0.00 0.00 84 1016.1
20260506112604 48 8 3.0 12.0 0.00 0.00 0.00 84 1015.9
20260506112104 48 12 5.0 12.0 0.00 0.00 0.00 84 1016.0
20260506111604 48 32 4.0 10.0 0.00 0.00 0.00 84 1015.8
20260506110104 48 51 3.0 10.0 0.00 0.00 0.00 83 1015.7
20260506105604 48 34 4.0 10.0 0.00 0.00 0.00 83 1015.7
20260506105104 48 65 4.0 10.0 0.00 0.00 0.00 82 1015.5
20260506104604 49 22 5.0 9.0 0.00 0.00 0.00 82 1015.6
20260506104104 49 17 3.0 10.0 0.00 0.00 0.00 82 1016.0
20260506103104 49 11 5.0 9.0 0.00 0.00 0.00 82 1016.6
20260506102604 49 347 5.0 9.0 0.00 0.00 0.00 81 1016.7
20260506102104 49 25 2.0 9.0 0.00 0.00 0.00 81 1016.3
20260506101104 49 38 2.0 10.0 0.00 0.00 0.00 81 1016.0
20260506100604 49 48 3.0 10.0 0.00 0.00 0.00 81 1016.0
20260506095104 49 28 3.0 9.0 0.00 0.00 0.00 80 1015.8
20260506094604 49 40 2.0 9.0 0.00 0.00 0.00 81 1015.9
20260506094104 49 260 2.0 8.0 0.00 0.00 0.00 80 1015.5
20260506093604 49 20 4.0 8.0 0.00 0.00 0.00 80 1015.3
20260506093104 49 8 3.0 9.0 0.00 0.00 0.00 80 1015.1
20260506092604 49 22 3.0 10.0 0.00 0.00 0.00 80 1015.0
20260506092104 49 4 5.0 10.0 0.00 0.00 0.00 80 1014.9
20260506091604 49 45 2.0 8.0 0.00 0.00 0.00 80 1014.8
20260506091104 49 50 3.0 7.0 0.00 0.00 0.00 79 1014.8
20260506085104 49 32 3.0 12.0 0.00 0.00 0.00 78 1014.7
20260506084604 49 3 5.0 12.0 0.00 0.00 0.00 77 1014.7
20260506083604 49 23 6.0 12.0 0.00 0.00 0.00 77 1014.4
20260506083103 49 12 6.0 10.0 0.00 0.00 0.00 77 1014.4
20260506082604 49 7 5.0 10.0 0.00 0.00 0.00 77 1014.2
20260506082104 49 14 6.0 12.0 0.00 0.00 0.00 77 1014.0
20260506080604 49 9 7.0 13.0 0.00 0.00 0.00 76 1013.8
20260506072603 49 55 4.0 8.0 0.00 0.00 0.00 76 1013.3
20260506072104 49 38 3.0 12.0 0.00 0.00 0.00 76 1013.2
20260506071604 49 62 5.0 12.0 0.00 0.00 0.00 76 1013.1
20260506071104 49 29 2.0 13.0 0.00 0.00 0.00 75 1013.0
20260506070604 49 49 6.0 13.0 0.00 0.00 0.00 75 1012.9
20260506062103 49 47 2.0 9.0 0.00 0.00 0.00 75 1013.3
20260506061603 49 38 4.0 12.0 0.00 0.00 0.00 74 1013.2
20260506061104 49 57 2.0 12.0 0.00 0.00 0.00 74 1013.2
20260506060604 49 39 5.0 12.0 0.00 0.00 0.00 74 1013.2
20260506060104 49 33 3.0 13.0 0.00 0.00 0.00 74 1013.0
20260506051104 50 71 5.0 12.0 0.00 0.00 0.00 72 1012.8
20260506050604 50 64 6.0 12.0 0.00 0.00 0.00 72 1012.8
20260506050104 50 67 5.0 13.0 0.00 0.00 0.00 72 1012.8
20260506045104 50 29 5.0 13.0 0.00 0.00 0.00 73 1012.8
20260506044604 50 55 8.0 16.0 0.00 0.00 0.00 73 1012.6
20260506044103 50 50 6.0 16.0 0.00 0.00 0.00 73 1012.9
20260506043104 50 50 5.0 12.0 0.00 0.00 0.00 74 1013.0
20260506042604 50 61 6.0 13.0 0.00 0.00 0.00 74 1013.0
20260506042104 50 45 5.0 13.0 0.00 0.00 0.00 74 1013.0
20260506041604 50 27 4.0 13.0 0.00 0.00 0.00 74 1012.9
20260506041104 50 46 5.0 13.0 0.00 0.00 0.00 74 1012.8
20260506035104 49 60 7.0 15.0 0.00 0.00 0.00 77 1012.7
20260506034604 49 42 6.0 15.0 0.00 0.00 0.00 78 1012.5
20260506034104 49 55 5.0 12.0 0.00 0.00 0.00 78 1012.6
20260506033604 49 53 6.0 14.0 0.00 0.00 0.00 79 1012.6
20260506032604 49 28 7.0 16.0 0.00 0.00 0.00 81 1012.3
20260506032104 49 35 6.0 14.0 0.00 0.00 0.00 81 1012.1
20260506031604 49 17 7.0 14.0 0.00 0.00 0.00 82 1011.9
20260506031104 49 22 7.0 16.0 0.00 0.00 0.00 82 1011.4
20260506030103 49 62 6.0 18.0 0.00 0.00 0.00 83 1011.3
20260506025603 49 63 8.0 17.0 0.00 0.00 0.00 84 1011.4
20260506025104 49 55 6.0 16.0 0.00 0.00 0.00 84 1011.5
20260506023604 49 41 5.0 15.0 0.00 0.00 0.00 85 1011.5
20260506023103 49 18 7.0 15.0 0.00 0.00 0.00 85 1011.7
20260506022603 49 30 5.0 15.0 0.00 0.00 0.00 85 1011.6
20260506022103 50 10 5.0 15.0 0.00 0.00 0.00 84 1011.7
20260506021104 50 2 4.0 14.0 0.00 0.00 0.00 84 1011.6
20260506020603 49 35 3.0 14.0 0.00 0.00 0.00 83 1011.5
20260506020103 49 19 7.0 13.0 0.00 0.00 0.00 84 1011.3
20260506015603 50 17 6.0 13.0 0.00 0.00 0.00 83 1011.2
20260506015104 50 358 7.0 13.0 0.00 0.00 0.00 83 1011.2
20260506013604 50 40 5.0 14.0 0.00 0.00 0.00 83 1011.0
20260506012603 50 44 6.0 14.0 0.00 0.00 0.00 83 1010.8
20260506011604 50 19 5.0 14.0 0.00 0.00 0.00 82 1010.9
20260506010604 50 55 4.0 14.0 0.00 0.00 0.00 82 1010.6
20260506010103 50 22 7.0 15.0 0.00 0.00 0.00 82 1010.5
20260506005603 50 14 7.0 15.0 0.00 0.00 0.00 82 1010.5
20260506005104 50 10 7.0 16.0 0.00 0.00 0.00 82 1010.2
20260506004604 50 14 6.0 17.0 0.00 0.00 0.00 82 1010.1
20260506003604 51 17 6.0 13.0 0.00 0.00 0.00 82 1009.7
20260506003104 51 14 5.0 12.0 0.00 0.00 0.00 82 1009.7
20260506002604 51 350 5.0 15.0 0.00 0.00 0.00 81 1009.8
20260506001603 51 25 6.0 17.0 0.00 0.00 0.00 81 1009.5
20260506001103 51 38 6.0 17.0 0.00 0.00 0.00 80 1009.5
20260506000604 51 25 6.0 13.0 0.00 0.00 0.00 80 1009.4
20260506000104 51 11 6.0 16.0 0.00 0.00 0.00 80 1009.5
20260505235604 51 40 6.0 16.0 0.00 0.00 0.00 79 1009.7
20260505234103 51 353 8.0 14.0 0.00 0.00 0.00 78 1009.1
20260505233604 52 16 3.0 15.0 0.00 0.00 0.00 79 1009.2
20260505233104 52 21 5.0 15.0 0.00 0.00 0.00 78 1009.4
20260505232603 52 17 8.0 15.0 0.00 0.00 0.00 78 1009.6
20260505232103 52 65 3.0 16.0 0.00 0.00 0.00 78 1009.8
20260505231603 52 59 4.0 16.0 0.00 0.00 0.00 78 1009.8
20260505231103 52 17 6.0 16.0 0.00 0.00 0.00 78 1009.6
20260505230603 52 350 7.0 15.0 0.00 0.00 0.00 78 1009.4
20260505225604 52 6 4.0 15.0 0.00 0.00 0.00 78 1008.9
20260505225104 53 10 6.0 13.0 0.00 0.00 0.00 77 1008.9
20260505224603 53 8 7.0 13.0 0.00 0.00 0.00 76 1009.0
20260505224103 53 5 4.0 13.0 0.00 0.00 0.00 76 1008.9
20260505223604 53 27 4.0 13.0 0.00 0.00 0.00 76 1008.9
20260505222604 53 13 5.0 15.0 0.00 0.00 0.00 76 1009.0
20260505221604 53 32 9.0 17.0 0.00 0.00 0.00 75 1008.7
20260505221103 53 4 7.0 21.0 0.00 0.00 0.00 76 1008.4
20260505220604 54 10 7.0 21.0 0.00 0.00 0.00 75 1008.6
20260505220103 54 11 4.0 17.0 0.00 0.00 0.00 75 1008.4
20260505215104 54 51 8.0 20.0 0.00 0.00 0.00 75 1008.5
20260505214603 54 53 7.0 17.0 0.00 0.00 0.00 75 1008.3
20260505213605 54 20 9.0 18.0 0.00 0.00 0.00 74 1007.7
20260505213105 55 24 8.0 18.0 0.00 0.00 0.00 74 1007.7
20260505212605 55 10 8.0 18.0 0.00 0.00 0.00 74 1007.6
20260505212105 55 3 9.0 18.0 0.00 0.00 0.00 74 1007.7
20260505211606 55 7 10.0 18.0 0.00 0.00 0.00 74 1007.9
20260505210605 54 2 8.0 18.0 0.00 0.00 0.00 75 1007.6
20260505210105 54 29 8.0 18.0 0.00 0.00 0.00 75 1007.4
20260505205605 55 18 7.0 22.0 0.00 0.00 0.00 75 1007.5
20260505204605 54 350 7.0 17.0 0.00 0.00 0.00 76 1007.4
20260505204105 54 23 7.0 16.0 0.00 0.00 0.00 76 1007.9
20260505203606 54 39 5.0 16.0 0.00 0.00 0.00 76 1008.7
20260505203105 55 15 8.0 17.0 0.00 0.00 0.00 75 1008.6
20260505202605 55 16 10.0 18.0 0.00 0.00 0.00 76 1008.0
20260505202104 55 25 7.0 18.0 0.00 0.00 0.00 76 1007.5
20260505201605 55 1 9.0 17.0 0.00 0.00 0.00 76 1007.5
20260505201105 55 18 9.0 18.0 0.00 0.00 0.00 76 1007.4
20260505200605 55 24 10.0 18.0 0.00 0.00 0.00 76 1007.3
20260505200105 55 7 7.0 16.0 0.00 0.00 0.00 77 1007.1
20260505195605 55 28 9.0 18.0 0.00 0.00 0.00 77 1007.4
20260505195105 55 37 9.0 18.0 0.00 0.00 0.00 78 1007.4
20260505194605 55 10 8.0 17.0 0.00 0.00 0.00 79 1007.2
20260505193606 55 15 8.0 17.0 0.00 0.00 0.00 79 1007.3
20260505193106 54 359 10.0 17.0 0.00 0.00 0.00 79 1007.1
20260505192605 54 21 6.0 14.0 0.00 0.00 0.00 80 1007.2
20260505191605 55 7 7.0 15.0 0.00 0.00 0.00 80 1007.1
20260505191105 55 23 5.0 16.0 0.00 0.00 0.00 80 1007.0
20260505185605 55 25 9.0 18.0 0.00 0.00 0.00 82 1007.1
20260505185105 55 14 9.0 18.0 0.00 0.00 0.00 82 1007.1
20260505184105 55 3 7.0 18.0 0.00 0.00 0.00 81 1006.8
20260505183105 56 15 7.0 17.0 0.00 0.00 0.00 80 1006.8
20260505182605 56 3 5.0 15.0 0.00 0.00 0.00 80 1006.8
20260505181605 57 14 6.0 16.0 0.00 0.00 0.00 79 1006.7
20260505181105 57 9 7.0 16.0 0.00 0.00 0.00 79 1006.4
20260505180605 57 7 9.0 15.0 0.00 0.00 0.00 79 1006.3
20260505180105 57 16 6.0 18.0 0.00 0.00 0.00 80 1006.1
20260505175605 57 346 10.0 18.0 0.00 0.00 0.00 80 1006.2
20260505175104 57 11 9.0 18.0 0.00 0.00 0.00 79 1006.1
20260505174605 57 33 7.0 18.0 0.00 0.00 0.00 80 1005.9
20260505174104 57 15 7.0 18.0 0.00 0.00 0.00 80 1005.7
20260505173105 57 21 7.0 18.0 0.00 0.00 0.00 81 1005.9
20260505172605 57 16 8.0 17.0 0.00 0.00 0.00 81 1005.8
20260505172105 57 20 7.0 16.0 0.00 0.00 0.00 81 1005.7
20260505171606 56 39 7.0 20.0 0.00 0.00 0.00 81 1005.7
20260505171105 56 345 9.0 20.0 0.00 0.00 0.00 82 1005.7
20260505170105 56 15 10.0 20.0 0.00 0.00 0.00 82 1005.2
20260505165105 57 5 9.0 16.0 0.00 0.00 0.00 82 1005.2
20260505164605 57 25 7.0 16.0 0.00 0.00 0.00 83 1005.2
20260505163106 57 11 9.0 20.0 0.00 0.00 0.00 83 1004.6
20260505162605 57 41 7.0 18.0 0.00 0.00 0.00 83 1004.5
20260505162105 57 60 5.0 18.0 0.00 0.00 0.00 84 1004.4
20260505161106 57 16 5.0 20.0 0.00 0.00 0.00 84 1004.0